Location: Medlow Airstrip Trail, Medlow Bath NSW 2780, Australia
(33.6682°S, 150.3233°E)
Time: 04:47:06
(UTC+11:00)

Vanguard 1 Rocket - All Passes

Search period start: 18 October 2019 00:00
Search period end: 28 October 2019 00:00
Orbit: 650 x 4226 km, 34.3° (Epoch: 13 October)

Date Brightness Start Highest point End Pass type
(mag) Time Alt. Az. Time Alt. Az. Time Alt. Az.
18 Oct - 00:13:54 10° WNW 00:22:56 67° NNE 00:28:08 10° E visible
18 Oct - 02:42:26 10° W 02:48:02 83° S 02:52:26 10° E visible
18 Oct - 05:08:27 10° W 05:12:37 42° NNW 05:17:35 10° NE visible
18 Oct - 07:36:44 10° NW 07:37:51 10° NNW 07:39:04 10° NNW daylight
18 Oct - 20:33:23 10° NNW 20:44:15 22° NNE 20:51:27 10° ENE visible
18 Oct - 23:00:24 10° NW 23:11:34 51° NNE 23:17:38 10° E visible
19 Oct - 01:29:55 10° W 01:37:06 87° S 01:41:45 10° E night (unlit)
19 Oct - 03:57:13 10° W 04:01:55 67° NNW 04:06:29 10° ENE visible
19 Oct - 06:23:25 10° WNW 06:26:33 17° NNW 06:30:23 10° NNE daylight
19 Oct - 19:22:49 10° N 19:31:18 15° NNE 19:37:46 10° ENE visible
19 Oct - 21:46:49 10° NW 21:59:44 39° NNE 22:06:54 10° E visible
20 Oct - 00:16:33 10° WNW 00:25:59 80° NNE 00:31:17 10° E visible
20 Oct - 02:45:27 10° W 02:51:10 89° SSE 02:55:34 10° E visible
20 Oct - 05:11:47 10° W 05:15:38 29° NNW 05:20:02 10° NE visible
20 Oct - 20:33:36 10° NNW 20:47:21 30° NNE 20:55:35 10° E visible
20 Oct - 23:02:36 10° WNW 23:14:35 64° NNE 23:20:52 10° E visible
21 Oct - 01:32:51 10° W 01:40:13 84° S 01:44:55 10° E night (unlit)
21 Oct - 04:00:19 10° W 04:04:58 51° NNW 04:09:21 10° NE visible
21 Oct - 06:28:54 10° NW 06:29:36 10° NNW 06:30:18 10° NNW daylight
21 Oct - 19:21:25 10° N 19:34:24 22° NNE 19:43:11 10° ENE visible
21 Oct - 21:48:25 10° NW 22:02:45 50° NNE 22:10:16 10° E visible
22 Oct - 00:19:19 10° W 00:29:04 89° NNE 00:34:27 10° E visible
22 Oct - 02:48:27 10° W 02:54:16 79° NNW 02:58:39 10° ENE visible
22 Oct - 05:15:24 10° WNW 05:18:36 19° NNW 05:22:05 10° NNE visible
22 Oct - 18:11:37 10° N 18:20:54 14° NE 18:28:20 10° ENE daylight
22 Oct - 20:34:26 10° NW 20:50:22 39° NNE 20:59:15 10° E visible
22 Oct - 23:05:01 10° WNW 23:17:36 75° NNE 23:24:03 10° E visible
23 Oct - 01:35:48 10° W 01:43:20 86° S 01:48:04 10° E night (unlit)
23 Oct - 04:03:30 10° W 04:07:57 36° NNW 04:12:02 10° NE visible
23 Oct - 19:21:13 10° NNW 19:37:24 30° NNE 19:47:28 10° E visible
23 Oct - 21:50:18 10° NW 22:05:44 61° NNE 22:13:31 10° E visible
24 Oct - 00:22:09 10° W 00:32:09 86° S 00:37:37 10° E visible
24 Oct - 02:51:27 10° W 02:57:19 64° NNW 03:01:40 10° ENE visible
24 Oct - 05:19:48 10° NW 05:21:31 12° NNW 05:23:16 10° N visible
24 Oct - 18:09:31 10° N 18:23:55 21° NE 18:34:14 10° ENE daylight
24 Oct - 20:35:41 10° NW 20:53:19 49° NNE 21:02:40 10° E visible
24 Oct - 23:07:34 10° WNW 23:20:37 85° NNE 23:27:12 10° E visible
25 Oct - 01:38:43 10° W 01:46:26 88° N 01:51:13 10° E night (unlit)
25 Oct - 04:06:50 10° W 04:10:50 25° NNW 04:14:29 10° NNE visible
25 Oct - 17:01:22 10° NNE 17:09:58 13° NE 17:17:20 10° ENE daylight
25 Oct - 19:21:41 10° NNW 19:40:19 38° NNE 19:51:14 10° E visible
25 Oct - 21:52:26 10° WNW 22:08:40 72° NNE 22:16:41 10° E visible
26 Oct - 00:25:00 10° W 00:35:14 85° S 00:40:47 10° E visible
26 Oct - 02:54:28 10° W 03:00:17 48° NNW 03:04:34 10° NE night (unlit)
26 Oct - 18:08:54 10° NNW 18:26:47 28° NNE 18:38:46 10° E daylight
26 Oct - 20:37:16 10° NW 20:56:12 59° NNE 21:05:55 10° E visible
26 Oct - 23:10:15 10° W 23:23:39 89° S 23:30:21 10° E visible
27 Oct - 01:41:37 10° W 01:49:30 77° NNW 01:54:20 10° ENE visible
27 Oct - 04:10:31 10° WNW 04:13:38 17° NW 04:16:29 10° N visible
27 Oct - 16:58:13 10° N 17:12:52 19° NE 17:24:17 10° ENE daylight
27 Oct - 19:22:38 10° NW 19:43:09 47° NNE 19:54:42 10° E visible
27 Oct - 21:54:46 10° WNW 22:11:37 81° NNE 22:19:50 10° E visible
